Regional Weather Roundup
Issued by NWS

Home | Current Version | Previous Version | Graphics & Text | Print | Product List | Glossary On
Versions: 1 2 3 4 5 6 7 8 9 10 11 12 13 14 15 16 17 18 19 20 21 22 23 24 25 26 27 28 29 30 31 32 33 34 35 36 37 38 39 40 41 42 43 44 45 46 47 48 49 50
000
ASUS43 KIND 251809
RWRIN

WEATHER ROUNDUP FOR INDIANA
NATIONAL WEATHER SERVICE INDIANAPOLIS IN
200 PM EDT MON MAY 25 2015

NOTE: "FAIR" INDICATES FEW OR NO CLOUDS BELOW 12,000 FEET WITH NO
SIGNIFICANT WEATHER AND/OR OBSTRUCTIONS TO VISIBILITY.

* - STATION DOES NOT REPORT WEATHER SUCH AS PRECIPITATION OR FOG.

+ - STATION NOT QUALITY CONTROLLED BY THE NATIONAL WEATHER SERVICE.
    USE DATA WITH CAUTION...ESPECIALLY DEWPOINT AND RELATIVE
    HUMIDITY OBSERVATIONS.

INZ001>003-010>013-019-020-251900-
NORTHWEST INDIANA

CITY           SKY/WX    TMP DP  RH WIND       PRES   REMARKS
GARY /AIRPORT/ PTSUNNY   77  63  61 SW23G39   29.91R
KNOX *+        PTSUNNY   73  64  73 SW24G30   29.94S
LA PORTE +     MOSUNNY   78  64  61 SW22G30   29.94S
6HR MIN TEMP:  70; 6HR MAX TEMP:  80; 6HR PCP:  0.06;

MICHIGAN CITY+ PTSUNNY   77  59  53 SW21G28   29.92S
MONTICELLO +   PTSUNNY   78  65  62 SW22G29   29.97S
6HR MIN TEMP:  69; 6HR MAX TEMP:  78;

RENSSELAER +   MOSUNNY   79  59  50 SW24G37   29.96S
VALPARAISO     PTSUNNY   79  61  53 SW24G41   29.94S
6HR MIN TEMP:  70; 6HR MAX TEMP:  79; 6HR PCP:  0.01;


$$

LMZ046-743>745-251900-
SOUTHERN LAKE MICHIGAN

STATION/POSITION TIME  TEMP    WIND        PRES    WAVE
                       AIR SEA DIR/SP/G            HT
                 (UTC) (F)     (DEG/KT/KT) (MB)    (FT)
BURNS HARBOR     1800   74     230/ 22/ 27 1013.2S
MICHIGAN CITY    1800   74     190/ 27/ 34   N/A
5NW MICH CITY    1800   64 52  250/ 16/ 19   N/A     3

$$

INZ004-005-014>016-021>024-251900-
NORTH CENTRAL INDIANA

CITY           SKY/WX    TMP DP  RH WIND       PRES   REMARKS
ELKHART        PTSUNNY   77  59  53 SW21G31   29.94S
GOSHEN         CLOUDY    78  63  59 SW26G37   29.94F
6HR MIN TEMP:  71; 6HR MAX TEMP:  79; 6HR PCP: TRACE;

LOGANSPORT +   CLOUDY    77  57  50 SW23G32   30.00S
PERU/GRISSOM   PTSUNNY   80  64  58 SW26G33   29.99F
6HR MIN TEMP:  69; 6HR MAX TEMP:  80; 6HR PCP: TRACE;

ROCHESTER +    MOSUNNY   81  61  50 SW22G33   29.98S
SOUTH BEND     PTSUNNY   73  66  78 SW18G31   29.94R
6HR MIN TEMP:  70; 6HR MAX TEMP:  80; 6HR PCP:  0.09;

WARSAW +       PTSUNNY   77  63  61 SW10G17   29.97F

$$

INZ006>009-017-018-025>027-251900-
NORTHEAST INDIANA

CITY           SKY/WX    TMP DP  RH WIND       PRES   REMARKS
ANGOLA *+      PTSUNNY   75  66  73 SW20      29.97F
AUBURN +       PTSUNNY   77  63  61 SW12G26   30.00F
FORT WAYNE     CLOUDY    77  64  64 SW29G37   30.02F
6HR MIN TEMP:  69; 6HR MAX TEMP:  78; 6HR PCP: TRACE;

HUNTINGTON +   PTSUNNY   76  63  63 SW16G28   30.02S
6HR MIN TEMP:  68; 6HR MAX TEMP:  76;


$$

INZ028-029-035-036-043>045-051>053-251900-
WEST CENTRAL INDIANA

CITY           SKY/WX    TMP DP  RH WIND       PRES   REMARKS
CRAWFORDSVL +  CLOUDY    76  57  50 SW28      30.03S
6HR MIN TEMP:  67; 6HR MAX TEMP:  77;

GREENCASTLE +  CLOUDY    73  61  64 S8G16     30.07S
LAFAYETTE      MOSUNNY   77  63  61 SW17G29   29.99S
6HR MIN TEMP:  70; 6HR MAX TEMP:  79; 6HR PCP: TRACE;

TERRE HAUTE    PTSUNNY   77  65  66 SW16G22   30.05S
6HR MIN TEMP:  69; 6HR MAX TEMP:  78; 6HR PCP:  0.01;


$$

INZ030>032-037>040-046>048-054>057-064-065-251900-
CENTRAL INDIANA

CITY           SKY/WX    TMP DP  RH WIND       PRES   REMARKS
CP ATTERBURY + CLOUDY    75  64  69 SW18G29   30.11S
FISHERS *+     CLOUDY    70  68  94 SW8       30.07F
FRANKFORT +    MOSUNNY   80  64  57 S18G32    30.04S
6HR MIN TEMP:  69; 6HR MAX TEMP:  80;

GREENWOOD *+   CLOUDY    75  63  64 SW16G23   30.10S
INDIANAPOLIS   PTSUNNY   75  65  70 S21G29    30.06S
6HR MIN TEMP:  69; 6HR MAX TEMP:  75; 6HR PCP:  0.01;

-EAGLE CREEK   PTSUNNY   75  66  73 S10G25    30.06F
6HR MIN TEMP:  68; 6HR MAX TEMP:  75; 6HR PCP:  0.01;

KOKOMO *+      PTSUNNY   79  64  61 SW28G38   30.02F
6HR MIN TEMP:  70; 6HR MAX TEMP:  79;

MARION +       PTSUNNY   77  62  59 SW26G33   30.04F
MT COMFORT *+  PTSUNNY   77  57  50 SW14G24   30.08F
SHELBYVILLE    PTSUNNY   77  64  64 S22G29    30.09S
6HR MIN TEMP:  70; 6HR MAX TEMP:  77; 6HR PCP: TRACE;

ZIONSVILLE +   CLOUDY    78  63  60 SW22G28   30.06F
6HR MIN TEMP:  70; 6HR MAX TEMP:  78;


$$

INZ033-034-041-042-049-050-058-059-251900-
EAST CENTRAL INDIANA

CITY           SKY/WX    TMP DP  RH WIND       PRES   REMARKS
MUNCIE         CLOUDY    74  65  73 SW18G29   30.06F
6HR MIN TEMP:  70; 6HR MAX TEMP:  74; 6HR PCP: TRACE;


$$

INZ060-061-067>069-081>083-085>088-251900-
SOUTHWEST INDIANA

CITY           SKY/WX    TMP DP  RH WIND       PRES   REMARKS
EVANSVILLE     CLOUDY    76  66  71 S14G21    30.10F
6HR MIN TEMP:  68; 6HR MAX TEMP:  76; 6HR PCP:  0.01;

HUNTINGBURG *+ CLOUDY    73  66  78 S16       30.12F
6HR MIN TEMP:  66; 6HR MAX TEMP:  75; 6HR PCP:  0.05;

WASHINGTON +   CLOUDY    74  65  72 S9        30.08F
6HR MIN TEMP:  67; 6HR MAX TEMP:  75;


$$

INZ062-063-066-070>080-084-089>092-251900-
SOUTH CENTRAL AND SOUTHEAST INDIANA

CITY           SKY/WX    TMP DP  RH WIND       PRES   REMARKS
BLOOMINGTON    CLOUDY    73  65  75 SW14G23   30.10S
6HR MIN TEMP:  68; 6HR MAX TEMP:  73; 6HR PCP:  0.01;

MADISON *+     CLOUDY    70  63  78 S12       30.18S
NORTH VERNON + CLOUDY    73  66  78 S12G22    30.14
SEYMOUR +      CLOUDY    75  63  64 S18G24    30.13S

$$




USA.gov is the U.S. government's official web portal to all federal, state and local government web resources and services.